EZY11AF EPWA-LROP

Flight info

Callsign EZY11AF
Flight time 1h 22m
Altitude 37000
Route XIMBA N195 VENES M857 PODAN DCT ROBTU DCT KENIN DCT KARIL DCT DENAK
Aircraft B736/M-SDE2E3FGHIRWXY/LB1

Departure

Time 2026-05-01 08:35
Airport Warsaw Chopin Airport (EPWA)

Arrival

Time 2026-05-01 09:57
Airport Bucharest Henri Coandă International Airport (LROP)
Time Latitude Longitude Altitude Speed Heading
2026-05-01 08:15 52.17276 20.96599 338 ft 0 kts 207°
2026-05-01 08:31 52.17265 20.96590 334 ft 5 kts 207°
2026-05-01 08:32 52.17232 20.96540 334 ft 3 kts 194°
2026-05-01 08:32 52.17203 20.96560 335 ft 7 kts 151°
2026-05-01 08:32 52.17150 20.96606 337 ft 10 kts 152°
2026-05-01 08:32 52.17080 20.96668 335 ft 13 kts 152°
2026-05-01 08:33 52.16993 20.96744 335 ft 15 kts 152°
2026-05-01 08:33 52.16902 20.96822 337 ft 15 kts 152°
2026-05-01 08:33 52.16800 20.96912 337 ft 18 kts 152°
2026-05-01 08:33 52.16687 20.97010 336 ft 19 kts 151°
2026-05-01 08:34 52.16566 20.97117 336 ft 20 kts 153°
2026-05-01 08:34 52.16451 20.97185 336 ft 9 kts 204°
2026-05-01 08:34 52.16450 20.97164 333 ft 5 kts 274°
2026-05-01 08:34 52.16532 20.96868 334 ft 67 kts 295°
2026-05-01 08:35 52.16830 20.95790 363 ft 135 kts 294°
2026-05-01 08:35 52.17236 20.94280 963 ft 146 kts 293°
2026-05-01 08:35 52.17608 20.92809 1803 ft 147 kts 294°
2026-05-01 08:35 52.18045 20.91286 2588 ft 146 kts 298°
2026-05-01 08:36 52.18172 20.89631 3280 ft 154 kts 253°
2026-05-01 08:36 52.17844 20.87928 3943 ft 164 kts 264°
2026-05-01 08:36 52.17615 20.85904 4273 ft 199 kts 262°
2026-05-01 08:36 52.17309 20.83540 4550 ft 228 kts 261°
2026-05-01 08:37 52.16962 20.80879 4942 ft 250 kts 261°
2026-05-01 08:37 52.16588 20.77969 5367 ft 270 kts 261°
2026-05-01 08:37 52.16197 20.74934 6299 ft 275 kts 262°
2026-05-01 08:37 52.15696 20.71892 7231 ft 286 kts 248°
2026-05-01 08:38 52.14451 20.69347 8129 ft 297 kts 222°
2026-05-01 08:38 52.12812 20.67208 9038 ft 305 kts 219°
2026-05-01 08:38 52.11101 20.65090 9937 ft 313 kts 218°
2026-05-01 08:38 52.09345 20.62926 10739 ft 323 kts 219°
2026-05-01 08:39 52.07485 20.60619 11030 ft 351 kts 219°
2026-05-01 08:39 52.05475 20.58104 11287 ft 376 kts 219°
2026-05-01 08:39 52.03371 20.55459 11894 ft 388 kts 219°
2026-05-01 08:39 52.01222 20.52755 12737 ft 393 kts 219°
2026-05-01 08:40 51.96282 20.48946 14317 ft 404 kts 183°
2026-05-01 08:40 51.93538 20.49256 15091 ft 399 kts 161°
2026-05-01 08:40 51.91013 20.50978 15944 ft 391 kts 142°
2026-05-01 08:41 51.88967 20.53775 16793 ft 383 kts 127°
2026-05-01 08:41 51.87124 20.56920 17622 ft 386 kts 126°
2026-05-01 08:41 51.85289 20.60133 18397 ft 391 kts 126°
2026-05-01 08:41 51.83420 20.63372 19128 ft 396 kts 126°
2026-05-01 08:42 51.81511 20.66617 19824 ft 400 kts 126°
2026-05-01 08:42 51.79572 20.69875 20514 ft 404 kts 126°
2026-05-01 08:42 51.77725 20.73291 21157 ft 399 kts 115°
2026-05-01 08:42 51.76590 20.77292 21834 ft 386 kts 98°
2026-05-01 08:43 51.76200 20.81517 22567 ft 379 kts 87°
2026-05-01 08:43 51.76037 20.85780 23258 ft 381 kts 86°
2026-05-01 08:43 51.75901 20.90072 23904 ft 385 kts 85°
2026-05-01 08:43 51.75806 20.92942 24270 ft 388 kts 86°
2026-05-01 08:44 51.75644 20.97302 24858 ft 391 kts 86°
2026-05-01 08:44 51.75465 21.01696 25434 ft 394 kts 86°
2026-05-01 08:44 51.75274 21.06118 25996 ft 397 kts 87°
2026-05-01 08:44 51.75077 21.10576 26541 ft 400 kts 87°
2026-05-01 08:45 51.74652 21.15066 27044 ft 414 kts 98°
2026-05-01 08:45 51.73486 21.19422 27574 ft 429 kts 109°
2026-05-01 08:45 51.72046 21.23663 28107 ft 433 kts 111°
2026-05-01 08:45 51.70566 21.27922 28580 ft 436 kts 111°
2026-05-01 08:46 51.69120 21.32160 29051 ft 439 kts 110°
2026-05-01 08:46 51.67667 21.36499 29513 ft 441 kts 110°
2026-05-01 08:46 51.66124 21.40803 30004 ft 451 kts 117°
2026-05-01 08:46 51.63911 21.44506 30607 ft 469 kts 135°
2026-05-01 08:47 51.61139 21.47352 31250 ft 473 kts 142°
2026-05-01 08:47 51.58278 21.49978 31758 ft 474 kts 142°
2026-05-01 08:47 51.55408 21.52597 32182 ft 475 kts 142°
2026-05-01 08:47 51.52796 21.55041 32585 ft 474 kts 141°
2026-05-01 08:48 51.49967 21.57740 33085 ft 473 kts 141°
2026-05-01 08:48 51.47151 21.60444 33591 ft 471 kts 141°
2026-05-01 08:48 51.44334 21.63140 34047 ft 471 kts 141°
2026-05-01 08:48 51.41521 21.65825 34451 ft 471 kts 141°
2026-05-01 08:49 51.38732 21.68478 34829 ft 470 kts 141°
2026-05-01 08:49 51.35921 21.71148 35224 ft 469 kts 141°
2026-05-01 08:49 51.33118 21.73812 35601 ft 468 kts 141°
2026-05-01 08:49 51.30322 21.76468 35952 ft 467 kts 141°
2026-05-01 08:50 51.27528 21.79120 36287 ft 467 kts 142°
2026-05-01 08:50 51.24719 21.81787 36312 ft 473 kts 142°
2026-05-01 08:50 51.19041 21.87105 36318 ft 474 kts 146°
2026-05-01 08:51 51.15940 21.88997 36333 ft 482 kts 160°
2026-05-01 08:51 51.12603 21.89906 36327 ft 490 kts 170°
2026-05-01 08:51 51.09168 21.89871 36323 ft 499 kts 184°
2026-05-01 08:51 51.05791 21.88856 36350 ft 502 kts 189°
2026-05-01 08:52 50.98943 21.86537 36333 ft 502 kts 187°
2026-05-01 08:52 50.92056 21.84601 36331 ft 503 kts 186°
2026-05-01 08:53 50.85147 21.82733 36331 ft 503 kts 186°
2026-05-01 08:53 50.78240 21.80833 36335 ft 504 kts 186°
2026-05-01 08:54 50.71333 21.78919 36331 ft 504 kts 186°
2026-05-01 08:54 50.64455 21.77018 36337 ft 504 kts 186°
2026-05-01 08:55 50.57545 21.75117 36341 ft 504 kts 186°
2026-05-01 08:55 50.50621 21.73217 36342 ft 504 kts 186°
2026-05-01 08:56 50.43722 21.71328 36347 ft 503 kts 186°
2026-05-01 08:56 50.36815 21.69442 36348 ft 503 kts 186°
2026-05-01 08:57 50.29962 21.67577 36352 ft 503 kts 186°
2026-05-01 08:57 50.23069 21.65706 36347 ft 503 kts 186°
2026-05-01 08:58 50.16173 21.63840 36349 ft 503 kts 186°
2026-05-01 08:58 50.09282 21.61980 36352 ft 502 kts 186°
2026-05-01 08:59 50.02385 21.60125 36356 ft 502 kts 186°
2026-05-01 08:59 49.95498 21.58277 36348 ft 502 kts 186°
2026-05-01 09:00 49.88652 21.56446 36361 ft 502 kts 186°
2026-05-01 09:00 49.81766 21.54610 36357 ft 502 kts 186°
2026-05-01 09:01 49.74864 21.52775 36347 ft 503 kts 185°
2026-05-01 09:01 49.67971 21.50947 36361 ft 503 kts 185°
2026-05-01 09:02 49.61062 21.49120 36355 ft 503 kts 185°
2026-05-01 09:02 49.54166 21.47301 36362 ft 503 kts 185°
2026-05-01 09:03 49.47261 21.45487 36355 ft 503 kts 185°
2026-05-01 09:03 49.43802 21.45059 36346 ft 495 kts 173°
2026-05-01 09:03 49.40409 21.45584 36379 ft 487 kts 162°
2026-05-01 09:04 49.37182 21.46861 36528 ft 481 kts 153°
2026-05-01 09:04 49.34153 21.48905 36900 ft 472 kts 147°
2026-05-01 09:04 49.31210 21.51115 37286 ft 471 kts 147°
2026-05-01 09:04 49.28256 21.53344 37339 ft 477 kts 147°
2026-05-01 09:05 49.22213 21.57839 37365 ft 487 kts 148°
2026-05-01 09:05 49.16093 21.62286 37364 ft 486 kts 148°
2026-05-01 09:06 49.09976 21.66702 37362 ft 486 kts 148°
2026-05-01 09:06 49.03863 21.71112 37363 ft 485 kts 148°
2026-05-01 09:07 48.97749 21.75517 37365 ft 485 kts 148°
2026-05-01 09:07 48.91632 21.79892 37362 ft 487 kts 150°
2026-05-01 09:08 48.85027 21.82684 37363 ft 500 kts 166°
2026-05-01 09:08 48.78158 21.84032 37354 ft 502 kts 168°
2026-05-01 09:09 48.71228 21.85368 37362 ft 501 kts 167°
2026-05-01 09:09 48.64323 21.86798 37361 ft 501 kts 167°
2026-05-01 09:10 48.57422 21.88262 37356 ft 500 kts 167°
2026-05-01 09:10 48.50531 21.89716 37359 ft 500 kts 167°
2026-05-01 09:11 48.43639 21.91160 37356 ft 499 kts 167°
2026-05-01 09:11 48.36898 21.93085 37360 ft 490 kts 156°
2026-05-01 09:12 48.30845 21.97368 37373 ft 476 kts 142°
2026-05-01 09:12 48.25224 22.02636 37361 ft 476 kts 141°
2026-05-01 09:13 48.19599 22.07866 37359 ft 476 kts 142°
2026-05-01 09:13 48.13942 22.13039 37358 ft 476 kts 142°
2026-05-01 09:14 48.08269 22.18188 37357 ft 476 kts 142°
2026-05-01 09:14 48.02600 22.23321 37350 ft 476 kts 143°
2026-05-01 09:15 47.96932 22.28444 37354 ft 476 kts 143°
2026-05-01 09:15 47.91303 22.33519 37357 ft 476 kts 143°
2026-05-01 09:16 47.85640 22.38614 37352 ft 476 kts 143°
2026-05-01 09:17 47.77507 22.46870 37341 ft 464 kts 129°
2026-05-01 09:17 47.70824 22.57263 37348 ft 463 kts 128°
2026-05-01 09:18 47.64137 22.67660 37354 ft 465 kts 128°
2026-05-01 09:19 47.57378 22.78006 37346 ft 466 kts 129°
2026-05-01 09:20 47.50610 22.88304 37344 ft 467 kts 129°
2026-05-01 09:21 47.41513 23.02088 37336 ft 469 kts 129°
2026-05-01 09:21 47.34657 23.12431 37331 ft 470 kts 129°
2026-05-01 09:22 47.25495 23.26188 37330 ft 471 kts 130°
2026-05-01 09:23 47.18602 23.36492 37319 ft 471 kts 130°
2026-05-01 09:24 47.11705 23.46760 37321 ft 471 kts 130°
2026-05-01 09:25 47.02511 23.60386 37331 ft 471 kts 130°
2026-05-01 09:26 46.95582 23.70608 37337 ft 471 kts 131°
2026-05-01 09:26 46.88642 23.80807 37343 ft 471 kts 131°
2026-05-01 09:27 46.81688 23.90987 37334 ft 471 kts 131°
2026-05-01 09:28 46.77078 23.97713 37339 ft 471 kts 131°
2026-05-01 09:28 46.72439 24.04466 37335 ft 472 kts 132°
2026-05-01 09:29 46.65461 24.14589 37322 ft 472 kts 132°
2026-05-01 09:30 46.58464 24.24700 37338 ft 472 kts 132°
2026-05-01 09:30 46.51453 24.34793 37348 ft 473 kts 132°
2026-05-01 09:31 46.46806 24.41461 37348 ft 473 kts 133°
2026-05-01 09:32 46.39780 24.51512 37347 ft 473 kts 133°
2026-05-01 09:32 46.32736 24.61548 37334 ft 473 kts 133°
2026-05-01 09:33 46.28030 24.68233 37320 ft 474 kts 133°
2026-05-01 09:34 46.20967 24.78235 37314 ft 474 kts 133°
2026-05-01 09:34 46.14685 24.87097 37309 ft 475 kts 134°
2026-05-01 09:35 46.07593 24.97066 37311 ft 475 kts 134°
2026-05-01 09:36 46.02838 25.03730 36943 ft 477 kts 134°
2026-05-01 09:36 46.00462 25.07053 36697 ft 475 kts 134°
2026-05-01 09:36 45.98096 25.10358 36459 ft 474 kts 134°
2026-05-01 09:36 45.95725 25.13666 36218 ft 475 kts 134°
2026-05-01 09:37 45.93351 25.16973 35980 ft 476 kts 134°
2026-05-01 09:37 45.88593 25.23591 35507 ft 476 kts 134°
2026-05-01 09:37 45.86214 25.26893 35272 ft 476 kts 134°
2026-05-01 09:38 45.81476 25.33430 34809 ft 474 kts 137°
2026-05-01 09:38 45.78838 25.36241 34313 ft 469 kts 147°
2026-05-01 09:38 45.75939 25.38395 33396 ft 471 kts 156°
2026-05-01 09:39 45.69683 25.41045 31910 ft 464 kts 166°
2026-05-01 09:39 45.66564 25.42149 31362 ft 458 kts 166°
2026-05-01 09:39 45.63500 25.43248 30813 ft 452 kts 165°
2026-05-01 09:40 45.60467 25.44348 30224 ft 446 kts 165°
2026-05-01 09:40 45.54589 25.46506 28260 ft 430 kts 165°
2026-05-01 09:40 45.51698 25.47571 27175 ft 427 kts 165°
2026-05-01 09:41 45.48836 25.48626 26189 ft 422 kts 165°
2026-05-01 09:41 45.43251 25.50680 24403 ft 412 kts 165°
2026-05-01 09:41 45.40484 25.51696 23444 ft 408 kts 165°
2026-05-01 09:42 45.37749 25.52698 22496 ft 402 kts 165°
2026-05-01 09:42 45.35058 25.53683 21631 ft 396 kts 165°
2026-05-01 09:42 45.29803 25.55603 19915 ft 385 kts 164°
2026-05-01 09:43 45.24668 25.57477 18234 ft 376 kts 164°
2026-05-01 09:43 45.22146 25.58395 17372 ft 371 kts 164°
2026-05-01 09:43 45.19664 25.59299 16547 ft 365 kts 163°
2026-05-01 09:44 45.14797 25.61068 14943 ft 356 kts 163°
2026-05-01 09:44 45.12436 25.61925 14168 ft 352 kts 163°
2026-05-01 09:44 45.10095 25.62774 13606 ft 340 kts 163°
2026-05-01 09:45 45.07834 25.63592 12972 ft 331 kts 163°
2026-05-01 09:45 45.03427 25.65190 11532 ft 323 kts 164°
2026-05-01 09:45 45.01264 25.65973 10881 ft 318 kts 164°
2026-05-01 09:46 44.99132 25.66745 10177 ft 315 kts 165°
2026-05-01 09:46 44.97034 25.67502 9750 ft 303 kts 165°
2026-05-01 09:46 44.95062 25.68212 9566 ft 284 kts 165°
2026-05-01 09:46 44.93180 25.68890 9172 ft 276 kts 165°
2026-05-01 09:47 44.91315 25.69566 8610 ft 277 kts 165°
2026-05-01 09:47 44.89453 25.70236 8147 ft 274 kts 165°
2026-05-01 09:47 44.87642 25.70886 7812 ft 270 kts 165°
2026-05-01 09:47 44.85829 25.71538 7499 ft 268 kts 165°
2026-05-01 09:48 44.84025 25.72187 7203 ft 267 kts 165°
2026-05-01 09:48 44.82223 25.72835 6909 ft 267 kts 165°
2026-05-01 09:48 44.80410 25.73486 6616 ft 269 kts 165°
2026-05-01 09:48 44.78615 25.74129 6276 ft 263 kts 165°
2026-05-01 09:49 44.76866 25.74756 5971 ft 256 kts 165°
2026-05-01 09:49 44.75160 25.75367 5727 ft 251 kts 165°
2026-05-01 09:49 44.73467 25.75974 5427 ft 250 kts 165°
2026-05-01 09:49 44.71781 25.76577 5176 ft 250 kts 165°
2026-05-01 09:50 44.70088 25.77181 4854 ft 250 kts 165°
2026-05-01 09:50 44.68442 25.77770 4787 ft 241 kts 165°
2026-05-01 09:50 44.66831 25.78346 4675 ft 235 kts 164°
2026-05-01 09:50 44.65250 25.78911 4561 ft 234 kts 164°
2026-05-01 09:51 44.63680 25.79474 4465 ft 232 kts 165°
2026-05-01 09:51 44.62120 25.80032 4369 ft 234 kts 164°
2026-05-01 09:51 44.60549 25.80589 4241 ft 228 kts 165°
2026-05-01 09:51 44.59033 25.81129 3990 ft 221 kts 165°
2026-05-01 09:52 44.57570 25.81649 3803 ft 215 kts 165°
2026-05-01 09:52 44.56160 25.82280 3553 ft 211 kts 147°
2026-05-01 09:52 44.55315 25.83841 3394 ft 202 kts 100°
2026-05-01 09:52 44.55128 25.85819 3067 ft 208 kts 92°
2026-05-01 09:53 44.55068 25.87844 2843 ft 207 kts 88°
2026-05-01 09:53 44.55118 25.89856 2530 ft 201 kts 82°
2026-05-01 09:53 44.55262 25.91701 2479 ft 189 kts 80°
2026-05-01 09:53 44.55414 25.93558 2182 ft 189 kts 79°
2026-05-01 09:54 44.55540 25.95325 1942 ft 175 kts 80°
2026-05-01 09:54 44.55677 25.96940 1769 ft 161 kts 80°
2026-05-01 09:54 44.55780 25.98452 1586 ft 154 kts 80°
2026-05-01 09:54 44.55881 25.99874 1366 ft 137 kts 81°
2026-05-01 09:55 44.55962 26.01137 1226 ft 127 kts 78°
2026-05-01 09:55 44.56069 26.02393 1010 ft 130 kts 80°
2026-05-01 09:55 44.56153 26.03624 883 ft 125 kts 82°
2026-05-01 09:55 44.56251 26.04855 744 ft 130 kts 81°
2026-05-01 09:56 44.56352 26.06092 574 ft 124 kts 82°
2026-05-01 09:56 44.56446 26.07296 419 ft 125 kts 83°
2026-05-01 09:56 44.56524 26.08473 323 ft 114 kts 84°
2026-05-01 09:56 44.56599 26.09418 322 ft 80 kts 84°
2026-05-01 09:57 44.56644 26.10042 322 ft 54 kts 84°
2026-05-01 09:57 44.56681 26.10529 322 ft 47 kts 84°
2026-05-01 09:57 44.56722 26.10759 322 ft 16 kts 26°
2026-05-01 09:57 44.56840 26.10754 320 ft 17 kts 354°
2026-05-01 09:58 44.56870 26.10750 321 ft 0 kts 354°
2026-05-01 09:58 44.56899 26.10746 321 ft 9 kts 354°
2026-05-01 09:58 44.56999 26.10708 321 ft 21 kts 321°
2026-05-01 09:58 44.57067 26.10496 321 ft 25 kts 264°
2026-05-01 09:59 44.57049 26.10263 319 ft 23 kts 264°
2026-05-01 09:59 44.57032 26.10043 321 ft 22 kts 264°
2026-05-01 09:59 44.57016 26.09829 321 ft 22 kts 264°
2026-05-01 09:59 44.57001 26.09646 321 ft 3 kts 257°
2026-05-01 10:00 44.56985 26.09630 320 ft 4 kts 191°
2026-05-01 10:00 44.56947 26.09634 321 ft 0 kts 172°